Temp
20 20 18 18 18 19 20 20 19 18 15 14 15 16 17 16 15 15 14 13 13 13 12 11 11 11 11 10 10 9 9 9 9 9 9 9 9 9 8 9 9 8 8
20 19 17 17 16 18 17 18 18 16 15 14 15 15 16 16 15 15 14 13 13 11 12 11 11 11 10 10 9 9 10 9 9 8 9 8 8 8 8 9 9 8 8
19 18 17 16 16 16 16 16 15 14 13 12 12 12 15 14 14 15 13 12 12 10 11 11 11 11 10 10 9 9 9 8 8 8 9 8 8 8 8 8 9 8 8
17 17 16 16 16 15 15 15 14 13 12 12 12 12 15 15 15 15 14 11 12 11 11 11 10 11 10 10 10 9 8 9 8 9 9 10 10 10 8 8 9 8 8
16 16 16 15 15 15 14 14 13 12 11 11 12 12 12 12 12 11 12 12 11 11 11 10 10 10 10 10 10 8 8 8 8 9 8 9 10 10 10 9 9 9 9
16 16 16 15 15 15 14 12 12 12 10 11 12 11 12 12 12 13 14 13 11 10 10 10 10 10 10 10 9 8 8 8 9 9 8 10 9 9 10 10 9 9 9
15 15 15 15 14 14 13 13 11 11 10 10 12 11 12 12 12 13 12 13 10 10 10 10 10 9 10 10 9 8 8 9 9 9 9 9 10 11 11 10 9 9 9
15 15 15 14 14 13 13 13 12 10 10 10 11 11 10 11 11 12 13 13 10 9 10 10 10 10 9 9 9 8 8 9 9 8 8 9 9 11 11 10 10 10 10
15 14 14 13 13 12 11 12 11 10 10 9 11 10 12 11 11 10 11 10 9 9 9 9 9 9 9 9 9 9 8 8 8 8 8 9 8 10 10 11 11 11 11
14 13 12 11 11 10 10 10 11 9 9 10 10 10 11 10 10 9 12 11 11 9 8 9 9 9 9 9 9 8 8 8 8 7 7 8 8 10 11 9 11 10 10
13 12 10 9 9 9 11 11 10 9 9 9 10 11 10 10 10 9 11 11 10 8 8 9 9 9 9 9 9 9 7 7 7 7 7 8 8 9 9 10 10 10 9
12 11 9 7 7 9 9 9 9 9 9 9 10 10 10 10 10 9 11 11 10 8 9 9 8 8 9 9 9 8 7 7 7 7 7 7 7 7 8 8 8 8 9
10 9 8 6 5 9 9 9 9 9 9 9 9 10 11 11 10 9 11 10 10 8 9 9 9 8 8 8 8 8 7 7 6 7 7 7 7 7 8 7 7 7 8
8 6 5 5 4 8 6 7 9 9 9 9 9 9 9 11 10 10 11 10 10 9 10 10 10 9 8 7 7 7 7 7 6 6 6 7 7 7 7 6 7 7 8
5 4 3 3 3 7 5 8 8 8 9 8 8 9 9 9 8 9 10 10 9 9 9 9 9 9 9 8 8 7 7 7 6 6 6 6 7 7 7 7 7 8 8
3 3 1 3 2 6 4 6 8 8 8 8 8 9 9 8 8 9 9 9 9 8 8 8 9 9 8 9 8 7 7 7 6 6 6 6 7 7 7 6 6 6 6
1 1 -0 1 2 4 2 4 8 8 8 9 9 9 8 9 9 9 8 9 8 8 8 8 8 8 9 9 8 8 7 7 7 7 6 6 7 7 6 6 6 6 6
-1 -1 -1 -0 2 3 2 1 8 8 8 8 8 8 9 9 9 9 9 9 8 8 8 8 8 8 8 8 8 8 7 7 7 7 7 7 7 7 6 6 6 6 6
-1 -1 -2 -1 0 2 2 1 6 8 8 8 8 8 8 8 9 9 9 9 9 8 8 8 8 8 8 7 7 7 7 7 7 7 7 7 7 7 7 7 6 6 6
-1 -1 -1 -1 -1 1 2 0 4 6 6 7 7 8 8 8 8 8 9 8 8 8 8 8 8 8 7 8 7 7 7 6 7 7 7 7 7 7 7 6 6 6 6
-1 -1 -1 -1 -1 -1 2 1 3 4 3 6 6 6 7 8 8 8 8 8 8 8 8 8 7 7 7 7 8 7 7 7 7 6 6 6 7 6 6 6 6 5 5
-1 -1 -1 -1 -1 1 1 -1 2 3 4 0 4 5 6 6 7 7 7 8 8 8 8 7 7 6 6 7 7 7 7 6 6 6 5 5 5 5 4 3 2 1 0
-2 -2 -2 -1 -0 1 2 1 1 2 2 2 3 4 4 5 5 6 6 6 6 6 6 5 4 4 4 4 5 5 5 5 5 3 3 3 2 2 1 0 -1 -2 -3
-3 -2 -2 -2 -2 -1 -1 -1 -1 -1 -0 0 0 1 2 2 2 2 3 3 3 3 3 2 2 2 2 2 2 3 2 2 2 2 -1 -1 -2 -2 -4 -5 -5 -5 -5
-4 -3 -3 -3 -2 -1 -1 -1 -0 -3 -3 -3 -3 -2 -2 -1 -1 -1 -1 -1 -1 -0 0 -0 -0 -0 -1 -2 -2 -1 -1 -2 -3 -3 -4 -5 -6 -6 -6 -6 -6 -6 -6
-5 -4 -4 -4 -3 -2 -1 -1 -2 -3 -4 -3 -3 -4 -4 -4 -4 -4 -4 -4 -3 -3 -3 -3 -2 -3 -3 -4 -3 -4 -4 -4 -6 -5 -6 -7 -7 -7 -7 -7 -7 -7 -8
Height
1438 1439 1441 1442 1442 1442 1441 1441 1440 1440 1442 1442 1445 1449 1453 1458 1462 1466 1469 1471 1474 1476 1478 1481 1482 1484 1486 1488 1490 1495 1495 1498 1508 1518 1528 1533 1537 1541 1544 1549 1552 1555 1558
1433 1435 1437 1437 1437 1436 1435 1433 1433 1433 1434 1435 1439 1443 1446 1452 1457 1461 1464 1465 1468 1470 1472 1475 1479 1480 1482 1483 1487 1492 1495 1503 1509 1515 1522 1527 1535 1538 1541 1547 1550 1552 1556
1428 1431 1433 1433 1432 1431 1428 1427 1427 1427 1427 1429 1432 1439 1442 1447 1450 1453 1457 1459 1462 1465 1468 1471 1474 1476 1479 1480 1482 1486 1489 1493 1504 1510 1514 1520 1526 1533 1539 1543 1547 1549 1554
1426 1427 1428 1428 1428 1425 1422 1420 1420 1422 1422 1424 1423 1429 1430 1436 1442 1447 1451 1454 1456 1459 1462 1466 1469 1472 1473 1477 1478 1481 1484 1488 1497 1506 1513 1517 1522 1527 1534 1539 1543 1548 1550
1423 1425 1425 1423 1422 1420 1416 1414 1414 1416 1416 1418 1418 1425 1429 1435 1439 1443 1444 1447 1451 1454 1457 1460 1463 1466 1469 1473 1475 1478 1482 1484 1492 1499 1506 1510 1518 1524 1527 1533 1539 1544 1547
1421 1421 1421 1419 1417 1415 1412 1409 1408 1409 1409 1411 1414 1419 1424 1429 1432 1435 1437 1441 1446 1449 1451 1454 1458 1461 1463 1467 1469 1473 1476 1484 1491 1497 1502 1508 1514 1518 1523 1529 1533 1538 1542
1419 1419 1417 1415 1413 1410 1408 1404 1403 1403 1403 1405 1410 1414 1421 1423 1427 1430 1432 1436 1440 1442 1445 1449 1452 1455 1459 1463 1466 1470 1475 1483 1489 1494 1500 1508 1513 1516 1520 1525 1531 1535 1539
1416 1415 1413 1410 1408 1406 1403 1400 1398 1397 1397 1400 1404 1410 1414 1420 1425 1426 1428 1430 1433 1436 1441 1444 1448 1452 1455 1459 1463 1468 1473 1477 1482 1488 1495 1502 1509 1513 1516 1522 1529 1531 1534
1411 1410 1409 1406 1403 1399 1396 1393 1391 1390 1390 1393 1399 1403 1409 1415 1420 1423 1425 1426 1429 1432 1437 1440 1444 1448 1451 1454 1459 1463 1469 1473 1478 1484 1491 1498 1505 1508 1512 1519 1522 1525 1529
1408 1407 1405 1402 1397 1392 1384 1382 1382 1382 1383 1387 1392 1398 1405 1411 1416 1419 1421 1422 1425 1429 1433 1437 1440 1444 1446 1451 1454 1459 1465 1468 1474 1480 1487 1492 1500 1502 1507 1515 1517 1522 1525
1407 1404 1402 1398 1391 1384 1372 1371 1373 1374 1377 1381 1386 1394 1402 1407 1411 1415 1417 1420 1424 1428 1430 1434 1436 1440 1444 1447 1451 1456 1458 1463 1470 1475 1481 1488 1493 1496 1501 1508 1514 1518 1521
1403 1402 1400 1394 1386 1374 1367 1365 1368 1370 1372 1376 1382 1389 1397 1402 1407 1411 1414 1417 1421 1425 1428 1430 1433 1437 1439 1443 1445 1449 1452 1459 1464 1470 1478 1483 1488 1493 1498 1504 1508 1512 1517
1402 1401 1396 1390 1381 1369 1365 1365 1367 1369 1371 1374 1378 1384 1392 1397 1403 1407 1410 1414 1418 1423 1426 1427 1430 1433 1436 1440 1442 1445 1449 1453 1459 1466 1473 1477 1483 1489 1493 1499 1502 1507 1511
1404 1400 1395 1387 1379 1366 1365 1360 1364 1366 1369 1372 1375 1381 1389 1395 1400 1404 1407 1412 1416 1421 1424 1426 1429 1432 1435 1439 1441 1444 1447 1451 1455 1461 1466 1471 1479 1484 1488 1493 1497 1501 1506
1403 1398 1391 1384 1378 1366 1364 1360 1363 1365 1366 1370 1375 1379 1388 1394 1399 1401 1404 1410 1414 1418 1423 1426 1429 1432 1435 1437 1439 1443 1446 1450 1454 1458 1462 1469 1475 1478 1483 1489 1492 1496 1499
1404 1399 1390 1385 1380 1367 1366 1360 1364 1365 1366 1370 1373 1380 1386 1391 1395 1397 1402 1407 1412 1416 1420 1423 1426 1430 1433 1436 1437 1440 1443 1447 1451 1455 1459 1463 1468 1473 1478 1483 1487 1489 1492
1404 1397 1391 1385 1377 1375 1369 1362 1362 1365 1364 1368 1374 1381 1385 1388 1392 1395 1400 1404 1409 1414 1418 1421 1424 1427 1430 1433 1435 1438 1441 1444 1447 1451 1455 1458 1463 1468 1473 1476 1479 1482 1485
1401 1398 1393 1387 1377 1377 1371 1363 1359 1363 1366 1370 1375 1380 1384 1387 1390 1394 1398 1402 1407 1412 1416 1419 1421 1424 1427 1430 1433 1436 1439 1441 1444 1447 1450 1453 1458 1461 1465 1468 1471 1473 1475
1403 1398 1396 1388 1381 1378 1370 1360 1356 1359 1365 1370 1374 1377 1381 1384 1388 1392 1396 1400 1404 1408 1412 1416 1418 1421 1424 1427 1430 1433 1436 1439 1441 1444 1447 1449 1451 1455 1458 1460 1461 1461 1462
1404 1399 1394 1390 1388 1378 1376 1369 1358 1359 1363 1369 1374 1377 1380 1383 1387 1389 1393 1397 1402 1405 1408 1411 1413 1417 1419 1423 1426 1429 1431 1433 1436 1439 1441 1442 1446 1448 1450 1451 1452 1453 1453
1407 1401 1396 1391 1386 1380 1377 1370 1365 1364 1368 1367 1374 1373 1377 1379 1383 1386 1390 1393 1397 1400 1403 1405 1408 1411 1414 1416 1420 1423 1425 1426 1428 1430 1431 1434 1437 1439 1440 1440 1440 1440 1442
1410 1406 1398 1392 1388 1384 1376 1376 1369 1373 1376 1381 1377 1375 1376 1381 1383 1385 1388 1390 1393 1396 1398 1400 1403 1406 1407 1409 1411 1414 1417 1419 1421 1423 1424 1425 1427 1428 1431 1434 1435 1437 1439
1412 1409 1404 1398 1392 1390 1389 1383 1381 1379 1382 1385 1379 1376 1378 1380 1382 1384 1386 1389 1390 1392 1394 1397 1400 1402 1404 1405 1407 1408 1410 1412 1414 1416 1417 1419 1422 1423 1425 1427 1432 1435 1438
1416 1413 1409 1405 1402 1401 1396 1395 1396 1394 1395 1391 1388 1383 1383 1385 1385 1387 1387 1388 1390 1392 1394 1398 1401 1402 1404 1406 1406 1407 1408 1411 1413 1413 1419 1421 1424 1425 1428 1434 1436 1440 1444
1419 1417 1414 1411 1408 1405 1402 1401 1401 1401 1400 1401 1397 1393 1394 1391 1391 1392 1392 1392 1393 1396 1399 1401 1403 1405 1406 1408 1410 1411 1412 1416 1416 1419 1423 1428 1429 1428 1435 1441 1443 1443 1446
1424 1422 1419 1416 1412 1410 1408 1407 1408 1408 1406 1405 1402 1401 1400 1398 1397 1397 1395 1398 1400 1402 1404 1406 1408 1409 1411 1412 1414 1416 1417 1421 1425 1427 1426 1431 1433 1435 1438 1442 1445 1448 1448
Wind_Speed
21 17 11 11 15 20 24 25 25 26 25 35 41 42 41 38 35 32 29 27 27 28 31 32 29 29 28 30 25 35 46 41 40 32 23 21 19 17 18 18 18 19 22
15 11 9 9 11 18 20 23 24 24 24 33 39 40 43 39 36 32 30 27 26 26 27 28 29 26 26 32 31 37 32 37 42 37 31 20 18 19 17 18 20 21 18
10 7 6 8 11 13 17 20 20 21 24 25 33 34 37 36 37 34 31 27 25 24 25 25 25 27 23 30 38 40 45 52 46 39 26 16 12 21 19 20 20 23 22
5 5 7 10 11 14 16 18 18 20 24 26 33 40 42 40 36 33 30 27 26 24 26 24 25 23 24 31 37 42 51 53 49 43 28 23 24 27 13 19 22 21 22
3 4 7 11 14 15 14 14 15 19 23 28 36 37 29 25 22 21 23 25 25 25 27 26 27 26 24 27 32 47 52 56 49 46 27 25 25 21 16 19 23 22 23
4 7 9 11 14 14 15 12 15 19 22 29 35 33 29 25 24 24 23 23 25 27 29 26 24 25 25 30 27 48 52 50 46 44 33 32 25 23 17 13 24 24 24
5 8 12 14 14 16 15 14 15 19 22 28 34 31 28 27 23 20 18 20 26 30 28 28 25 25 27 25 30 44 51 46 44 47 42 39 32 30 27 16 14 20 20
5 9 13 16 18 20 19 15 17 19 23 26 34 30 29 23 20 20 19 20 24 22 29 24 26 27 25 32 35 42 49 51 51 54 50 37 33 34 31 21 16 13 21
10 14 19 16 16 25 24 20 18 21 25 24 33 36 31 23 18 17 17 16 16 22 27 30 27 22 30 35 42 47 51 51 49 48 49 45 40 40 32 33 32 15 11
14 18 20 21 22 27 29 23 20 24 26 25 33 32 30 22 18 16 17 16 17 19 23 28 28 29 29 32 46 50 50 49 46 47 49 47 34 39 32 33 32 24 15
14 17 22 23 26 27 27 20 22 25 27 26 31 29 29 22 20 17 17 17 15 15 17 22 25 28 30 30 34 41 52 48 46 50 50 45 43 40 43 38 34 34 23
13 18 22 26 30 28 16 10 18 24 27 25 27 30 29 23 22 21 18 19 18 15 15 17 20 27 28 29 33 37 46 48 49 51 45 45 44 40 37 32 30 24 33
15 18 23 30 35 27 14 10 15 21 25 24 28 32 31 26 24 22 21 20 19 17 15 14 18 18 21 24 28 34 38 46 50 52 46 52 46 43 37 32 30 29 31
17 19 23 28 37 31 19 9 15 21 24 22 28 30 29 27 25 22 21 21 19 19 16 14 13 14 13 15 16 24 35 40 44 47 50 50 48 47 49 37 34 28 32
19 21 23 26 36 36 21 4 16 19 21 24 28 24 25 25 20 20 20 20 19 18 17 17 15 12 13 13 14 18 24 29 36 44 47 45 47 50 50 45 36 40 37
19 20 24 26 30 36 25 8 13 22 21 22 20 20 22 26 23 19 18 19 19 19 17 17 15 14 13 15 12 10 18 24 27 36 42 41 47 48 45 41 39 40 40
19 22 23 25 27 29 23 11 15 20 14 15 14 15 13 20 21 18 18 18 18 19 21 19 18 17 15 13 14 17 21 27 29 30 34 40 46 44 40 39 39 40 45
20 20 21 21 22 23 17 5 19 19 18 19 17 15 14 12 13 17 16 16 16 18 18 19 20 19 19 17 15 17 21 31 32 36 36 37 39 41 40 39 42 43 45
19 19 18 17 19 21 19 12 24 27 23 18 16 17 16 14 11 10 10 13 15 15 16 17 18 19 19 20 20 20 23 27 28 27 28 31 37 40 35 35 42 49 49
18 18 19 19 17 20 16 21 23 23 18 17 14 14 14 15 15 14 12 13 11 12 17 20 21 21 23 22 22 23 26 29 31 31 32 31 32 31 32 34 35 38 40
17 17 18 22 24 21 20 26 25 25 16 12 9 10 7 5 7 11 14 16 16 19 19 21 22 23 25 25 23 25 26 28 32 36 39 39 38 38 40 42 41 39 37
15 16 19 23 25 25 24 26 29 23 16 8 11 11 8 5 4 5 8 13 18 21 22 21 22 21 21 23 25 26 28 30 32 32 32 33 35 35 27 26 26 24 22
14 14 16 20 23 23 23 26 25 20 18 15 15 14 10 8 6 4 6 9 12 15 17 16 15 12 10 10 11 12 12 17 23 25 24 23 19 14 13 12 13 14 16
15 14 14 17 19 19 21 22 20 20 16 18 19 17 14 13 12 11 11 12 13 13 13 11 10 10 9 7 6 6 9 8 13 15 12 8 8 11 16 20 20 19 17
14 14 15 15 16 16 17 18 18 16 16 16 19 22 22 22 21 21 20 19 18 13 13 14 12 11 14 14 12 12 13 14 15 18 19 22 25 27 25 24 22 20 17
12 14 14 15 15 14 14 14 13 13 13 15 19 21 23 25 26 27 29 27 24 21 21 20 19 23 21 19 17 18 21 21 24 25 28 27 24 24 22 19 16 14 13
Wind_Direction
254 264 258 265 263 257 257 260 252 245 232 225 226 227 228 227 230 232 234 233 234 233 230 234 236 241 241 241 215 195 185 182 182 178 174 177 178 178 184 183 187 194 190
243 240 259 285 288 267 259 257 250 239 227 227 228 225 225 227 231 235 236 236 235 234 229 230 237 238 240 213 191 187 185 183 175 187 168 150 170 184 184 188 194 194 195
224 237 279 292 292 295 275 261 246 232 222 213 222 219 221 224 226 232 237 234 235 228 230 234 236 234 237 220 208 199 192 178 184 194 180 153 181 175 191 188 198 200 193
199 265 295 308 310 309 296 264 243 226 218 208 219 212 218 218 226 230 236 235 233 230 229 236 236 240 235 232 227 219 197 184 188 194 194 188 184 180 172 196 199 202 204
220 289 305 315 319 317 307 277 243 226 222 209 219 210 207 212 217 217 225 229 231 228 234 239 244 240 238 226 230 205 198 191 188 191 184 177 192 184 174 183 198 205 211
281 295 302 308 313 313 317 281 245 228 225 216 210 208 205 199 206 215 226 229 221 228 233 239 243 237 245 228 225 209 199 197 196 195 195 198 184 187 184 192 195 205 211
314 320 317 316 315 320 312 288 248 234 226 220 208 206 204 204 209 215 220 227 219 222 229 226 222 231 233 230 217 206 203 195 201 207 208 203 202 208 202 183 193 209 209
325 324 326 315 308 313 311 302 252 233 226 223 207 204 202 200 206 217 228 234 220 219 223 227 233 235 235 219 208 206 199 199 205 204 209 213 211 211 206 190 190 190 206
332 336 332 327 310 311 305 289 257 228 220 222 209 216 203 199 201 216 222 217 205 218 219 226 228 229 229 219 209 201 201 206 209 206 204 202 214 217 211 212 211 204 202
333 335 335 326 317 313 308 282 249 224 213 218 211 219 201 199 202 206 224 218 210 215 217 224 229 230 225 222 215 211 213 210 209 210 207 213 207 206 212 216 208 216 219
333 339 337 333 330 317 307 275 230 213 206 213 212 213 199 197 203 205 213 203 197 201 205 211 223 225 228 229 219 228 219 216 213 213 212 216 215 202 201 216 221 233 238
336 347 345 344 343 334 318 270 216 207 201 211 206 203 195 194 204 202 202 198 195 204 213 214 220 222 224 230 232 229 223 219 214 216 216 220 223 218 216 224 228 227 233
342 342 348 350 349 344 314 263 232 210 207 208 200 205 199 198 200 199 198 197 193 199 204 201 204 212 223 227 233 230 228 222 215 218 221 222 217 228 226 220 219 231 239
343 342 341 348 347 349 332 329 228 215 215 214 203 205 200 202 197 196 198 199 197 198 196 182 183 190 200 207 221 234 232 228 222 222 222 222 216 229 233 222 221 234 246
353 350 347 349 347 349 328 347 232 221 214 206 202 201 200 194 189 191 198 200 201 206 201 190 195 203 208 219 222 232 235 233 228 225 228 227 222 230 235 236 234 240 242
349 349 355 349 343 345 325 346 212 213 201 193 192 192 199 191 189 188 193 202 204 204 211 207 207 214 217 218 225 229 232 237 233 223 224 222 221 231 238 242 242 245 243
352 354 356 351 356 340 326 321 173 196 179 175 178 181 179 191 190 188 193 200 206 209 210 213 216 223 227 227 229 241 238 232 227 226 226 226 229 232 239 240 242 242 241
357 357 354 356 7 345 340 23 162 174 177 175 172 176 168 159 170 194 199 201 202 206 209 220 226 226 230 234 231 229 236 239 236 235 237 238 237 234 244 246 242 242 247
354 359 357 7 21 12 6 51 129 146 161 161 170 174 175 172 173 177 185 208 214 215 221 225 232 238 240 238 237 233 225 230 236 243 245 247 244 243 251 251 249 248 252
6 2 10 25 38 48 29 49 86 113 118 129 146 164 169 183 193 192 203 211 215 222 226 229 230 233 239 240 241 241 238 233 229 229 231 232 230 233 243 247 248 250 250
17 14 22 32 34 45 46 51 64 69 74 87 115 131 153 164 177 200 212 217 222 231 234 234 233 236 236 238 237 237 240 242 241 241 241 243 244 244 246 247 247 245 245
30 27 31 34 40 40 45 48 58 58 64 57 89 97 111 118 140 183 204 207 218 226 228 225 226 226 231 238 242 241 238 241 244 245 247 252 254 253 253 251 247 243 240
36 31 37 43 45 48 45 50 50 52 41 46 61 73 77 86 94 118 150 172 183 190 194 200 203 206 215 231 243 248 242 232 230 230 232 237 241 245 230 219 202 185 174
45 43 41 46 50 52 53 55 54 55 59 61 68 74 80 86 93 103 113 129 140 151 158 164 157 143 135 126 132 160 174 186 205 207 183 169 166 147 131 135 137 136 133
48 47 48 47 50 56 62 60 60 53 57 67 72 78 84 87 91 93 94 99 96 103 118 116 113 116 111 101 100 114 124 130 126 130 123 122 122 120 124 127 128 130 134
54 54 52 51 53 58 64 69 65 72 68 68 75 83 88 90 93 94 92 89 92 97 98 103 109 104 98 98 102 111 116 118 123 126 124 120 117 119 124 127 127 128 130